Home   Weather   Pasadena   Past weeks

Flag for USA Past Weather in Pasadena, California, USA — Yesterday and Last 2 Weeks

Now
57 °F

Scattered clouds.


Feels Like: 57 °F
Forecast: 58 / 83 °F
Wind: 5 mph from South

Location: Bob Hope Airport

Current Time: Jun 19, 2018 at 7:42:39 am

Latest Report: Jun 19, 2018 at 6:53 am


Visibility: 10 mi

Pressure: 29.95 "Hg

Humidity: 96%

Dew Point: 56 °F

Location of PasadenaLocation

Past Weather in Pasadena — Graph

°F

Pasadena Temperature Yesterday

Maximum temperature yesterday: 73 °F (at 2:53 pm)
Minimum temperature yesterday: 58 °F (at 5:53 am)
Average temperature yesterday: 64 °F

High & Low Weather Summary for the Past Weeks

 TemperatureHumidityPressure
High92 °F (Jun 14, 4:53 pm)100% (Jun 19, 4:05 am)30.01 "Hg (Jun 19, 4:05 am)
Low57 °F (Jun 7, 5:06 am)19% (Jun 14, 5:53 pm)29.67 "Hg (Jun 14, 5:53 pm)
Average68 °F66%29.83 "Hg
* Reported Jun 4 6:53 am — Jun 19 6:44 am, Pasadena. Weather by CustomWeather, © 2018

Note: Actual official high and low records may vary slightly from our data, if they occured in-between our weather recording intervals... More about our weather records

Advertising

Pasadena Weather History for the Previous 24 Hours

Scroll right to see more
 ConditionsComfort  
Time TempWeatherWind HumidityBarometerVisibility
6:44 am
Tue, Jun 19
57 °FScattered clouds.5 mph96%29.98 "Hg10 mi
5:53 am57 °FPartly sunny.5 mph96%29.94 "Hg10 mi
4:53 am57 °FLow clouds.6 mph100%29.93 "Hg10 mi
4:42 am57 °FPassing clouds.5 mph100%29.96 "Hg10 mi
4:05 am57 °FPassing clouds.3 mph100%29.96 "Hg10 mi
3:53 am58 °FClear.3 mph97%29.93 "Hg10 mi
2:53 am58 °FClear.5 mph93%29.93 "Hg10 mi
1:53 am59 °FClear.5 mph93%29.93 "Hg10 mi
12:53 am60 °FClear.5 mph90%29.94 "Hg10 mi
11:53 pm
Mon, Jun 18
61 °FClear.5 mph81%29.95 "Hg10 mi
10:53 pm62 °FClear.6 mph75%29.96 "Hg10 mi
9:53 pm62 °FClear.6 mph73%29.96 "Hg10 mi
8:53 pm63 °FClear.8 mph70%29.95 "Hg10 mi
7:53 pm66 °FSunny.8 mph61%29.93 "Hg10 mi
6:53 pm69 °FSunny.10 mph57%29.92 "Hg10 mi
5:53 pm70 °FSunny.10 mph57%29.92 "Hg10 mi
4:53 pm70 °FSunny.7 mph55%29.93 "Hg10 mi
3:53 pm71 °FSunny.12 mph53%29.94 "Hg10 mi
2:53 pm73 °FSunny.12 mph51%29.94 "Hg10 mi
1:53 pm72 °FSunny.9 mph53%29.95 "Hg10 mi
12:53 pm71 °FSunny.8 mph55%29.96 "Hg10 mi
11:53 am70 °FSunny.10 mph57%29.96 "Hg10 mi
10:53 am68 °FSunny.9 mph57%29.98 "Hg10 mi
9:53 am66 °FScattered clouds.No wind61%29.98 "Hg10 mi
8:53 am62 °FScattered clouds.5 mph70%29.98 "Hg10 mi
8:38 am62 °FPartly sunny.3 mph73%30.01 "Hg10 mi
7:53 am60 °FSunny.No wind78%29.98 "Hg10 mi
Weather by CustomWeather, © 2018

See weather overview